Wind_Speed
15 15 15 16 16 16 15 14 14 12 11 10 9 10 10 10 9 11 7 2 5 1 6 10 9 5 2 4 7 5 4 2 1 4 4 13 5 5 6 18 5 3 16 28 31
15 16 16 16 16 17 17 15 14 13 11 10 9 9 10 10 10 11 9 6 5 2 4 8 9 6 5 4 4 5 3 2 1 2 3 10 13 11 7 10 6 14 20 29 29
16 16 16 16 17 16 17 18 16 14 12 10 9 8 8 8 7 1 6 10 8 5 2 6 3 5 5 4 4 3 2 1 3 0 4 7 10 7 20 2 8 27 29 31 30
17 17 17 17 18 18 18 18 18 16 12 10 8 7 7 4 4 3 3 8 11 9 3 3 1 0 2 4 3 3 3 3 3 3 6 3 3 7 22 6 14 31 31 33 31
18 18 18 19 19 19 19 18 18 17 12 10 8 6 6 5 5 5 5 9 12 10 6 3 3 4 2 2 3 4 2 3 8 3 5 4 2 4 9 9 20 32 31 30 28
19 19 20 20 21 20 20 19 19 16 12 9 8 6 5 3 6 9 6 7 10 10 9 7 2 3 4 2 3 2 3 7 11 7 3 5 1 6 9 22 28 32 31 28 26
19 20 21 22 22 22 21 21 19 14 10 8 7 7 9 11 7 10 10 10 9 9 9 9 6 2 4 4 4 6 4 8 2 1 3 3 3 3 23 27 30 32 31 28 26
20 21 21 22 23 23 23 20 14 9 6 6 7 6 7 5 14 13 13 11 10 9 9 9 7 4 4 12 5 4 3 2 3 4 4 1 4 3 23 27 26 30 31 29 28
21 22 22 23 24 23 20 16 10 7 4 4 5 4 5 1 6 14 16 10 7 6 6 9 8 4 8 5 4 4 2 3 5 8 3 1 1 9 24 24 24 28 31 31 29
20 21 22 23 23 22 17 11 9 5 3 6 5 4 4 3 2 5 19 14 7 7 6 7 4 4 4 4 3 4 2 3 4 4 2 1 1 7 25 25 24 27 28 33 33
21 21 21 22 24 15 14 5 6 2 5 9 12 17 22 9 5 6 17 17 9 6 4 3 5 7 11 8 3 2 4 4 4 5 5 6 3 8 21 20 20 29 32 33 34
21 22 21 20 20 13 9 8 9 12 13 18 24 21 20 18 6 4 16 12 6 4 4 5 4 8 5 3 3 3 1 4 3 2 1 1 8 8 14 25 31 31 34 35 33
21 22 21 19 14 13 3 14 16 16 5 9 5 9 12 11 8 6 18 11 4 5 5 6 4 9 6 4 4 2 4 3 2 2 2 4 6 4 5 12 23 27 35 36 37
21 22 21 18 6 15 3 14 16 8 5 6 3 1 10 9 3 7 18 12 2 9 8 4 2 9 5 5 6 3 7 5 4 3 2 3 5 4 1 6 9 24 29 35 37
20 20 20 18 18 13 9 11 10 3 4 1 1 3 12 8 5 5 16 6 8 6 7 8 6 5 4 7 7 8 5 1 3 3 3 2 2 7 2 6 11 20 31 37 38
20 18 19 18 16 4 13 9 3 5 4 6 3 4 4 2 2 4 5 5 6 5 1 6 1 6 10 4 9 5 6 8 4 3 2 3 5 9 3 3 5 13 26 34 36
19 16 19 19 14 12 9 4 5 3 5 6 3 3 3 3 1 2 5 4 5 4 2 3 3 3 4 5 3 6 6 3 4 3 6 3 3 10 8 5 6 11 25 33 30
19 17 17 16 15 10 3 4 2 3 5 4 4 1 6 5 2 2 5 4 1 5 4 5 4 6 5 6 7 5 7 6 5 5 4 1 6 7 4 13 5 6 8 23 30
19 15 13 9 7 8 7 3 6 5 3 7 7 2 1 2 2 2 6 7 9 8 6 5 5 3 5 4 8 5 3 5 7 4 2 3 8 9 5 6 12 9 6 13 19
20 16 2 5 6 15 4 4 4 4 4 2 2 2 1 3 5 6 7 5 7 11 5 6 1 1 4 5 6 4 6 3 3 5 4 4 6 6 5 6 8 10 8 8 17
15 8 9 7 14 6 3 6 5 9 3 3 2 4 4 2 5 5 5 5 6 5 6 6 3 5 1 5 8 2 2 6 5 3 6 3 7 6 8 3 6 5 3 4 7
7 3 3 16 2 2 3 5 3 4 7 6 2 7 4 3 3 5 9 8 15 15 10 6 5 4 10 1 3 4 7 6 5 5 2 4 6 4 7 7 7 3 5 5 4
10 3 4 4 3 2 3 3 4 3 3 3 4 6 2 3 2 7 6 7 21 10 10 8 1 2 9 6 3 3 4 6 6 4 6 6 6 3 6 5 11 3 4 4 2
5 3 1 7 2 3 2 4 4 5 6 6 5 2 1 4 6 5 3 2 21 17 21 16 3 7 7 6 4 2 4 3 6 4 6 6 5 6 6 7 9 7 7 3 4
3 2 2 2 1 2 1 3 3 4 3 5 4 4 2 4 5 5 6 3 4 15 7 6 6 4 2 1 5 2 3 7 7 6 6 6 11 14 6 4 1 8 10 9 14
2 4 6 5 8 2 4 1 2 3 2 5 5 5 4 6 6 7 3 4 5 4 4 4 4 3 3 3 1 4 3 3 1 4 1 5 5 4 8 9 10 8 11 15 20
1 2 3 5 4 0 3 1 2 6 8 16 9 8 11 8 18 28 21 4 4 8 5 6 7 3 3 2 4 4 1 2 3 2 6 6 6 4 5 7 9 12 18 18 22
Wind_Direction
6 3 1 359 357 356 353 349 342 335 327 323 314 306 298 290 273 266 265 196 170 105 53 42 6 334 327 51 47 78 60 55 178 149 153 156 122 171 111 137 105 68 153 158 160
4 1 357 356 354 351 349 347 342 334 326 319 314 307 304 298 281 255 251 198 207 195 33 32 2 19 40 54 35 70 89 202 176 39 124 173 144 155 120 139 75 103 141 157 163
359 357 354 352 349 348 345 342 340 335 324 315 311 307 306 309 303 262 219 223 210 209 99 54 14 9 25 27 30 84 126 131 20 42 71 132 135 151 137 226 178 149 150 164 168
357 353 350 348 344 343 343 339 334 333 323 311 305 302 301 295 174 128 146 199 198 197 154 93 256 306 27 340 20 50 72 115 89 19 46 25 139 140 157 178 184 162 160 166 174
353 350 347 344 341 339 339 336 330 327 320 308 297 297 296 264 236 175 101 155 180 184 172 155 161 145 200 240 42 29 351 49 359 7 3 31 83 185 158 143 166 164 165 169 176
348 346 344 341 338 337 337 332 325 322 313 303 288 288 276 261 214 195 164 141 156 171 177 181 165 126 107 129 75 320 311 8 9 23 314 350 125 107 155 156 162 169 172 177 182
342 342 342 340 336 334 335 328 323 320 314 300 285 285 265 243 207 193 170 154 143 144 170 175 161 146 132 86 65 109 47 351 341 112 276 302 27 344 151 161 162 175 180 185 191
338 339 341 339 336 336 334 330 330 327 318 303 296 291 258 232 211 189 174 167 161 163 160 157 166 123 89 122 67 58 40 354 271 105 268 190 239 169 159 160 160 174 186 195 198
334 336 338 339 337 338 337 333 342 320 314 306 289 277 258 264 222 209 202 191 178 165 155 147 167 109 121 101 56 12 218 234 308 187 280 27 245 167 176 170 165 182 190 198 206
329 332 336 339 339 341 343 335 330 329 275 296 275 289 249 139 333 221 204 195 185 177 145 162 134 83 42 86 217 207 206 268 241 191 229 281 254 154 180 183 186 190 191 203 209
325 327 333 339 341 356 353 358 348 333 306 263 268 270 279 294 314 194 195 189 183 170 147 122 104 169 192 190 156 147 170 223 249 169 150 232 183 188 186 186 193 202 206 209 211
322 324 328 339 344 8 40 53 33 325 298 287 275 256 248 262 299 198 178 176 153 153 123 41 193 224 169 134 188 280 295 286 289 88 138 84 260 219 187 203 199 200 207 213 217
319 321 325 337 343 356 28 15 348 334 277 303 264 246 242 221 218 208 171 164 126 127 158 152 231 158 134 159 163 247 223 248 185 65 200 314 276 215 212 205 212 214 214 216 217
313 318 324 336 349 348 17 339 338 336 34 282 280 254 168 140 216 193 175 163 129 180 146 215 209 146 142 180 139 254 188 250 100 81 222 68 283 288 162 209 205 215 216 222 223
304 311 318 326 322 336 332 326 331 354 355 296 156 144 161 167 134 170 185 174 154 157 117 241 164 152 161 188 173 223 155 256 104 99 28 346 31 271 206 224 227 212 216 223 229
302 305 309 312 316 332 331 326 319 40 265 334 117 132 132 1 72 101 158 194 139 113 351 217 231 162 198 163 179 131 77 46 56 85 349 194 134 287 250 220 268 203 213 221 227
309 301 298 299 303 308 325 339 41 139 323 346 348 147 154 161 125 93 141 132 139 106 278 335 236 259 157 105 66 84 69 8 31 17 225 314 113 239 296 266 229 213 207 217 221
314 303 290 295 291 275 276 52 167 250 266 310 331 33 172 154 204 102 112 168 132 96 114 156 312 186 177 167 173 175 151 151 199 184 235 144 239 256 279 329 327 251 228 223 222
321 312 305 296 263 209 160 84 214 216 307 323 330 95 301 229 147 140 178 194 200 169 159 136 268 278 187 134 137 186 147 172 100 7 58 231 292 315 339 359 22 42 204 211 219
330 329 34 322 181 162 89 231 248 227 307 343 333 6 11 250 154 163 185 203 199 186 150 203 130 241 314 71 43 142 157 85 17 131 215 284 287 239 323 312 341 11 0 265 230
330 336 341 147 144 165 155 225 268 272 278 343 293 312 240 261 198 200 208 253 187 139 107 139 110 294 27 186 167 114 171 54 115 120 161 201 262 213 239 268 275 299 47 354 255
336 357 63 145 84 53 158 204 258 279 295 260 232 219 232 234 241 216 218 223 170 141 154 191 136 207 226 141 139 147 172 141 128 225 99 150 274 208 246 244 241 248 27 27 334
343 314 173 225 127 272 284 281 268 275 275 314 274 197 172 271 272 205 219 230 165 144 162 178 201 27 343 6 25 194 195 119 111 86 186 137 263 212 250 258 250 196 69 49 115
353 353 177 204 217 140 21 271 268 282 257 224 266 240 246 274 221 277 268 236 195 178 176 142 129 157 186 198 170 165 182 163 124 125 173 217 249 265 224 206 205 111 103 126 155
1 323 355 289 332 7 84 311 280 307 296 303 284 218 99 298 302 214 228 225 39 142 120 128 192 167 217 251 111 114 206 186 163 174 163 221 195 219 191 208 166 136 130 129 124
12 10 345 295 306 307 158 197 266 336 259 282 227 319 284 245 239 294 267 194 177 201 107 355 183 154 14 201 214 122 61 203 43 143 9 130 248 152 99 122 139 157 173 161 130
322 303 333 299 322 145 210 307 282 332 278 245 299 324 296 242 287 275 246 290 199 148 142 130 132 109 187 100 316 334 22 236 208 202 140 184 218 125 116 117 127 162 166 156 129
Height
1525 1522 1520 1518 1515 1514 1512 1509 1507 1505 1503 1501 1500 1498 1497 1496 1497 1497 1499 1502 1502 1502 1502 1501 1500 1498 1496 1497 1496 1497 1511 1520 1514 1513 1513 1512 1513 1517 1518 1521 1525 1527 1527 1532 1537
1525 1522 1520 1518 1515 1513 1511 1509 1506 1504 1502 1500 1499 1497 1496 1494 1494 1495 1498 1499 1501 1502 1503 1502 1499 1497 1496 1498 1498 1500 1516 1513 1508 1509 1509 1511 1513 1516 1521 1523 1526 1527 1530 1535 1540
1524 1522 1520 1517 1515 1512 1510 1507 1505 1503 1500 1499 1498 1496 1495 1494 1493 1494 1495 1497 1500 1502 1503 1503 1500 1499 1498 1499 1501 1504 1512 1509 1510 1508 1510 1510 1514 1516 1520 1525 1525 1526 1530 1537 1541
1524 1521 1519 1516 1514 1511 1509 1506 1503 1501 1499 1498 1497 1496 1494 1494 1500 1494 1494 1495 1498 1501 1503 1503 1502 1501 1501 1502 1502 1507 1506 1508 1511 1511 1512 1514 1515 1515 1516 1520 1523 1527 1530 1536 1541
1523 1520 1517 1515 1512 1509 1507 1504 1502 1499 1497 1496 1495 1495 1495 1494 1493 1493 1494 1494 1496 1500 1502 1503 1503 1503 1504 1503 1504 1506 1507 1509 1509 1511 1514 1513 1514 1514 1519 1520 1524 1529 1534 1538 1542
1522 1519 1516 1513 1510 1507 1505 1501 1498 1496 1495 1494 1494 1494 1495 1495 1490 1492 1494 1495 1497 1499 1502 1503 1503 1503 1503 1505 1508 1508 1507 1509 1509 1513 1514 1515 1514 1512 1519 1520 1525 1530 1534 1538 1542
1521 1518 1515 1511 1508 1505 1502 1498 1495 1493 1492 1492 1492 1492 1493 1489 1489 1491 1493 1495 1496 1498 1500 1502 1503 1504 1504 1507 1510 1510 1513 1511 1512 1513 1515 1516 1516 1515 1516 1521 1525 1531 1535 1538 1541
1520 1517 1514 1510 1506 1503 1499 1495 1492 1491 1490 1490 1490 1490 1488 1486 1487 1490 1493 1495 1496 1498 1500 1501 1503 1503 1506 1509 1512 1516 1518 1528 1513 1513 1514 1515 1525 1518 1519 1521 1527 1531 1536 1539 1540
1519 1515 1512 1509 1504 1500 1496 1493 1491 1490 1489 1488 1489 1489 1485 1485 1487 1489 1492 1495 1496 1498 1500 1500 1502 1504 1509 1514 1525 1524 1536 1529 1518 1514 1514 1515 1520 1518 1520 1522 1526 1530 1533 1536 1540
1517 1514 1511 1507 1503 1499 1495 1491 1490 1489 1488 1488 1487 1490 1485 1484 1485 1485 1489 1493 1496 1497 1499 1501 1502 1508 1512 1520 1539 1530 1532 1524 1523 1514 1515 1517 1517 1518 1519 1522 1523 1527 1531 1534 1537
1516 1513 1510 1507 1503 1499 1495 1492 1494 1491 1488 1486 1485 1484 1482 1483 1483 1483 1486 1491 1494 1496 1500 1500 1509 1518 1511 1508 1509 1512 1521 1523 1514 1509 1513 1516 1514 1515 1516 1520 1523 1523 1526 1530 1531
1514 1511 1508 1506 1503 1500 1497 1496 1498 1500 1485 1480 1477 1478 1478 1481 1484 1482 1485 1489 1491 1500 1498 1506 1515 1503 1500 1505 1509 1511 1518 1522 1513 1510 1515 1515 1517 1509 1511 1510 1513 1517 1520 1523 1528
1513 1509 1506 1504 1501 1501 1498 1498 1497 1494 1490 1474 1472 1472 1475 1479 1480 1480 1483 1487 1490 1496 1501 1511 1503 1500 1503 1509 1513 1515 1518 1517 1519 1514 1514 1518 1518 1509 1507 1509 1513 1514 1515 1518 1522
1511 1508 1505 1503 1503 1500 1499 1498 1496 1493 1500 1480 1473 1471 1473 1475 1478 1479 1482 1486 1490 1497 1500 1501 1497 1503 1506 1511 1510 1521 1505 1508 1516 1524 1539 1522 1545 1514 1507 1508 1506 1507 1511 1513 1516
1508 1506 1505 1503 1501 1501 1501 1497 1496 1495 1521 1473 1472 1472 1473 1475 1476 1477 1481 1483 1489 1493 1498 1502 1499 1500 1506 1505 1504 1511 1503 1511 1518 1529 1529 1526 1543 1517 1508 1508 1501 1499 1501 1506 1511
1505 1504 1502 1502 1500 1499 1498 1496 1496 1512 1517 1479 1472 1474 1476 1475 1475 1477 1480 1483 1485 1490 1493 1494 1492 1493 1494 1495 1498 1502 1511 1523 1530 1536 1555 1533 1538 1522 1509 1498 1493 1493 1496 1500 1504
1501 1501 1499 1498 1498 1497 1497 1496 1513 1523 1483 1482 1477 1473 1476 1478 1476 1476 1482 1485 1495 1508 1507 1496 1493 1488 1488 1498 1501 1508 1527 1558 1558 1563 1559 1537 1539 1519 1492 1488 1489 1489 1492 1496 1501
1497 1496 1495 1494 1494 1495 1496 1499 1515 1495 1491 1478 1475 1475 1478 1476 1477 1480 1484 1492 1487 1494 1514 1515 1517 1490 1485 1490 1502 1510 1517 1549 1557 1571 1551 1542 1541 1513 1489 1488 1487 1490 1492 1494 1498
1493 1491 1490 1489 1489 1491 1496 1514 1506 1497 1486 1484 1478 1478 1478 1474 1475 1480 1485 1490 1484 1486 1503 1512 1505 1483 1483 1484 1489 1510 1519 1513 1547 1555 1552 1542 1519 1495 1489 1487 1483 1487 1489 1490 1492
1490 1487 1487 1487 1487 1491 1496 1508 1497 1488 1485 1483 1488 1480 1484 1479 1480 1483 1487 1474 1476 1477 1478 1491 1505 1485 1481 1480 1488 1493 1500 1526 1539 1556 1553 1544 1533 1525 1497 1491 1488 1485 1486 1488 1488
1490 1487 1487 1486 1489 1492 1504 1503 1492 1485 1485 1485 1484 1485 1482 1478 1479 1483 1477 1468 1465 1476 1477 1489 1497 1498 1490 1493 1499 1504 1510 1522 1526 1541 1551 1556 1538 1501 1496 1492 1491 1486 1482 1482 1485
1491 1490 1488 1489 1493 1496 1500 1495 1488 1484 1482 1481 1480 1480 1480 1473 1473 1480 1476 1463 1459 1464 1482 1483 1500 1508 1496 1482 1483 1489 1497 1506 1532 1533 1545 1544 1528 1489 1490 1491 1490 1488 1486 1483 1483
1493 1491 1491 1491 1497 1497 1493 1490 1487 1484 1483 1481 1478 1475 1473 1473 1477 1469 1463 1450 1455 1461 1473 1478 1499 1517 1502 1493 1486 1489 1492 1500 1510 1521 1537 1538 1522 1487 1489 1490 1490 1490 1486 1485 1485
1496 1496 1491 1492 1492 1492 1493 1491 1488 1483 1480 1479 1475 1472 1473 1472 1468 1467 1460 1451 1449 1450 1456 1464 1493 1496 1512 1495 1487 1487 1488 1493 1498 1522 1527 1522 1502 1488 1488 1487 1490 1487 1488 1490 1490
1497 1497 1498 1495 1493 1492 1493 1491 1488 1486 1479 1476 1472 1473 1473 1476 1469 1470 1459 1454 1453 1454 1458 1463 1485 1488 1484 1477 1478 1483 1484 1491 1490 1495 1501 1495 1497 1480 1484 1486 1487 1489 1492 1495 1496
1499 1499 1498 1496 1494 1493 1492 1489 1488 1484 1483 1479 1477 1472 1472 1476 1467 1463 1452 1450 1450 1457 1460 1464 1483 1481 1487 1480 1479 1489 1486 1484 1485 1490 1490 1494 1492 1480 1488 1488 1490 1493 1499 1502 1497
1499 1500 1500 1496 1494 1494 1491 1489 1486 1486 1477 1476 1475 1476 1469 1464 1459 1448 1449 1445 1444 1451 1461 1467 1481 1491 1496 1485 1488 1496 1481 1482 1482 1480 1485 1493 1482 1480 1489 1492 1494 1498 1501 1502 1497